[[{"header":{"parameterUnit":"m.s-1","parameterCategory":1,"la1":30.2991,"la2":30.254,"lo1":-89.0895,"lo2":-89.0444,"dy":0.0017,"dx":0.0017,"nx":28,"ny":28,"refTime":"2023-10-06T21:00:00:Z","depth":0,"parameterNumber":2,"parameterNumberName":"U-component_of_WINDS"},"data":[0,0,0,0,0,0,0,0,0,0,0,0,0,0,0,0,0,0,0,0,0,0,0,0,0,0,0,0,0,0,0,0,0,0,0,0,0,0,0,0,0,0,0,0,0,0,0,0,0,0,0,0,0,0,0,0,0,0,0.1278,0.1279,0,0.1288,0.1288,0.1288,0.1309,0.131,0.131,0.1311,0.132,0.132,0.132,0,0,0,0,0,0,0,0,0,0,0,0,0,0.128,0.1279,0.1278,0.1279,0.1279,0.1288,0.1288,0.1288,0.1309,0.131,0.131,0.1311,0.132,0.132,0.132,0,0,0,0,0,0,0,0,0,0,0,0,0,0.1283,0.1279,0.1278,0.129,0.1291,0.1288,0.1288,0.1288,0.1309,0.131,0.131,0.1311,0.132,0.132,0.132,0.1306,0,0,0.1319,0.1319,0,0,0,0,0,0,0,0,0.1283,0.1283,0.1288,0.1289,0.1291,0.1298,0.1292,0.1294,0.1309,0.1302,0.1311,0.1311,0.1312,0.1313,0.1313,0.1306,0.1307,0.1319,0.1319,0.1319,0.1319,0,0,0,0,0,0,0,0.1283,0.1283,0.1282,0.1288,0.129,0.1296,0.1297,0.1293,0.1304,0.1303,0.1305,0.1305,0.1313,0.1313,0.1314,0.1307,0.1319,0.1319,0.1319,0.1319,0.129,0.1289,0,0,0,0,0,0,0.1281,0.1282,0.1282,0.1282,0.1288,0.1295,0.1296,0.1295,0.1304,0.1306,0.1305,0.1306,0.1313,0.1314,0.1314,0.1298,0.1319,0.1319,0.1319,0.129,0.129,0.1289,0,0,0,0,0,0,0.128,0.128,0.1282,0.1283,0.1283,0.1294,0.1293,0.1295,0.1295,0.1305,0.1307,0.1303,0.1314,0.1314,0.1308,0.1299,0.1319,0.1319,0.1291,0.129,0.1289,0.1266,0,0,0,0,0,0,0.128,0.128,0.1274,0.1283,0.1283,0.1275,0.1292,0.1295,0.1295,0.1297,0.1304,0.1306,0.1315,0.1308,0.1308,0.1299,0.1319,0.1292,0.1291,0.129,0.1268,0.1265,0.1262,0,0,0,0,0,0.128,0.1267,0.1274,0.1274,0.1276,0.1274,0.1275,0.1285,0.1294,0.1288,0.1295,0.1306,0.13,0.1307,0.1307,0.1298,0.1293,0.1291,0.129,0.1269,0.1265,0.1262,0,0,0,0,0,0,0.1257,0.1268,0.1276,0.1265,0.1269,0.1278,0.1271,0.128,0.1281,0.1283,0.1296,0.1297,0.1289,0.1293,0.1301,0.1286,0.1298,0.1297,0.1283,0.1279,0.1276,0.1275,0.1318,0,0,0,0,0,0.1251,0.1248,0.1258,0.1248,0.1249,0.126,0.1259,0.1267,0.1271,0.1273,0.1279,0.1282,0.1282,0.1281,0.1281,0.1269,0.1271,0.1263,0.126,0.1258,0.1256,0.1251,0.1247,0.1284,0.1284,0.1284,0,0,0.1238,0.1244,0.1241,0.1243,0.1247,0.1244,0.1261,0.1257,0.1255,0.1272,0.1266,0.1271,0.1276,0.1267,0.1264,0.127,0.1247,0.1256,0.1254,0.1253,0.1249,0.1246,0.1242,0.1283,0.1283,0.1284,0,0,0.1212,0.1216,0.1208,0.1212,0.1217,0.1225,0.1223,0.1231,0.1235,0.1229,0.1243,0.1241,0.1239,0.1243,0.1244,0.1222,0.1231,0.1221,0.1205,0.12,0.1197,0.1195,0.1187,0.1184,0.122,0.122,0.122,0,0.1195,0.119,0.1203,0.1198,0.1199,0.1215,0.1208,0.1211,0.1216,0.1216,0.1224,0.1223,0.1227,0.122,0.1215,0.1215,0.1214,0.122,0.1197,0.1194,0.1192,0.1185,0.1182,0.1218,0.1219,0.1219,0.1219,0,0.1169,0.1166,0.1159,0.1164,0.1164,0.1158,0.117,0.1169,0.1178,0.1184,0.1179,0.1186,0.1188,0.1187,0.1195,0.1181,0.1185,0.1194,0.1207,0.1187,0.1181,0.1178,0.1217,0.1217,0.1217,0.1218,0,0,0.1127,0.114,0.1137,0.114,0.1148,0.1146,0.1142,0.1144,0.1143,0.1147,0.1143,0.1142,0.1152,0.1153,0.1162,0.1158,0.114,0.1168,0.1169,0.1163,0.1126,0.1118,0.1114,0.1147,0.1147,0.1146,0.1125,0,0.1103,0.1095,0.1107,0.1096,0.1094,0.1111,0.1107,0.1111,0.1118,0.1118,0.1126,0.1125,0.1137,0.1139,0.1135,0.1143,0.1133,0.1145,0.1144,0.1144,0.1141,0.1111,0.1102,0.1082,0.1123,0.1122,0.1122,0,0.1073,0.1075,0.1065,0.1075,0.1074,0.107,0.1074,0.1073,0.108,0.1085,0.1088,0.1099,0.1095,0.1109,0.1105,0.1113,0.1113,0.1118,0.1117,0.1117,0.1131,0.1109,0.1075,0.1072,0.1118,0.1118,0.1118,0,0.1043,0.1044,0.1038,0.104,0.1052,0.1049,0.1053,0.106,0.1061,0.1065,0.1066,0.1069,0.107,0.1072,0.1084,0.1093,0.1079,0.1093,0.1083,0.1083,0.1079,0.1079,0.1044,0.108,0.108,0.108,0.108,0,0.1014,0.1007,0.1025,0.1021,0.1014,0.1028,0.1021,0.1028,0.1034,0.1032,0.1047,0.1045,0.1061,0.1061,0.1071,0.1066,0.1067,0.1071,0.1074,0.1069,0.1069,0.1069,0.1071,0.1079,0.108,0.108,0.108,0,0.0979,0.0991,0.0986,0.0998,0.1,0.0995,0.1005,0.1002,0.1011,0.1009,0.1009,0.1022,0.1023,0.1036,0.1039,0.1046,0.1037,0.1043,0.1035,0.1036,0.1026,0.1027,0.099,0.0986,0.1025,0.1025,0.1024,0,0.096,0.0955,0.0966,0.0966,0.097,0.097,0.0971,0.0986,0.0987,0.0995,0.0991,0.0993,0.0996,0.0997,0.1007,0.101,0.1016,0.1003,0.1016,0.1012,0.1015,0.1015,0.1015,0.0999,0.0999,0.0999,0.0998,0,0.0924,0.093,0.0931,0.0935,0.0936,0.094,0.0944,0.0944,0.096,0.096,0.0961,0.0963,0.0968,0.097,0.0975,0.0981,0.0992,0.0994,0.0992,0.0987,0.0983,0.0985,0.1026,0.0995,0.0995,0.0995,0.0995,0.0996,0.0895,0.0892,0.09,0.0901,0.0907,0.0911,0.0909,0.0918,0.0919,0.0924,0.0933,0.0933,0.0941,0.0949,0.0954,0.0955,0.0962,0.0958,0.0958,0.0956,0.0954,0.0984,0.0956,0.0956,0.0956,0.0956,0.0956,0,0.086,0.0866,0.0867,0.0874,0.0875,0.0886,0.0892,0.0893,0.0893,0.0899,0.0902,0.0904,0.0907,0.0918,0.0922,0.0921,0.0926,0.0921,0.0921,0.0922,0.0948,0.0949,0.0917,0.0917,0.0917,0.0917,0.0917,0.0917,0.0841,0.0836,0.0844,0.0842,0.0849,0.0849,0.0852,0.0856,0.0862,0.0863,0.0866,0.0873,0.0882,0.0887,0.0891,0.0894,0.0895,0.0888,0.0893,0.0916,0.092,0.0924,0.0925,0.0888,0.0888,0.0867,0.0867,0.0867]},{"header":{"parameterUnit":"m.s-1","parameterCategory":1,"la1":30.2991,"la2":30.254,"lo1":-89.0895,"lo2":-89.0444,"dy":0.0017,"dx":0.0017,"nx":28,"ny":28,"refTime":"2023-10-06T21:00:00:Z","depth":0,"parameterNumber":3,"parameterNumberName":"V-component_of_WINDS"},"data":[0,0,0,0,0,0,0,0,0,0,0,0,0,0,0,0,0,0,0,0,0,0,0,0,0,0,0,0,0,0,0,0,0,0,0,0,0,0,0,0,0,0,0,0,0,0,0,0,0,0,0,0,0,0,0,0,0,0,-7.0325,-7.0326,0,-7.0412,-7.0413,-7.0414,-7.0387,-7.0386,-7.0384,-7.0382,-7.0465,-7.0469,-7.0473,0,0,0,0,0,0,0,0,0,0,0,0,0,-7.0131,-7.0134,-7.0325,-7.0326,-7.0327,-7.0412,-7.0413,-7.0414,-7.0388,-7.0386,-7.0383,-7.0381,-7.0464,-7.0468,-7.0473,0,0,0,0,0,0,0,0,0,0,0,0,0,-7.0216,-7.0136,-7.0324,-7.0324,-7.0325,-7.0411,-7.0413,-7.0414,-7.0388,-7.0385,-7.0383,-7.038,-7.0462,-7.0468,-7.0474,-7.0564,0,0,-7.0491,-7.0494,0,0,0,0,0,0,0,0,-7.0211,-7.0223,-7.0323,-7.0324,-7.0325,-7.0386,-7.0375,-7.0464,-7.0389,-7.0364,-7.0382,-7.0379,-7.044,-7.0448,-7.047,-7.0568,-7.0571,-7.0492,-7.0495,-7.0498,-7.05,0,0,0,0,0,0,0,-7.0205,-7.0219,-7.0359,-7.0324,-7.0326,-7.0318,-7.0327,-7.0392,-7.0416,-7.0366,-7.0364,-7.0375,-7.0441,-7.0464,-7.0472,-7.0572,-7.0492,-7.0497,-7.0501,-7.0503,-7.075,-7.0753,0,0,0,0,0,0,-7.0199,-7.0214,-7.0356,-7.0361,-7.0261,-7.0324,-7.0334,-7.0369,-7.0415,-7.042,-7.0378,-7.0374,-7.0456,-7.0465,-7.0475,-7.0584,-7.0498,-7.0503,-7.0507,-7.0747,-7.0751,-7.0754,0,0,0,0,0,0,-7.0195,-7.0212,-7.0353,-7.0288,-7.0305,-7.033,-7.037,-7.0372,-7.0396,-7.0424,-7.0428,-7.0398,-7.0454,-7.0466,-7.0543,-7.0587,-7.0506,-7.0511,-7.0743,-7.0748,-7.0752,-7.0804,0,0,0,0,0,0,-7.019,-7.0211,-7.0246,-7.0289,-7.0309,-7.0421,-7.0373,-7.0376,-7.0407,-7.0403,-7.0444,-7.0448,-7.0453,-7.0534,-7.0548,-7.0593,-7.0516,-7.0739,-7.0745,-7.0751,-7.0799,-7.081,-7.082,0,0,0,0,0,-7.0183,-7.0256,-7.0248,-7.0265,-7.0354,-7.0423,-7.0434,-7.044,-7.0411,-7.0446,-7.0464,-7.0447,-7.058,-7.0542,-7.0558,-7.0605,-7.0737,-7.0744,-7.075,-7.0794,-7.0808,-7.0819,0,0,0,0,0,0,-7.0215,-7.0261,-7.0253,-7.0342,-7.038,-7.0419,-7.0463,-7.0454,-7.0498,-7.0493,-7.0496,-7.0505,-7.0584,-7.0602,-7.0559,-7.0696,-7.0654,-7.0664,-7.0681,-7.0695,-7.0705,-7.0699,-7.0521,0,0,0,0,0,-7.0233,-7.0287,-7.0324,-7.0398,-7.0418,-7.0438,-7.0468,-7.047,-7.0507,-7.0522,-7.0546,-7.0581,-7.0631,-7.0664,-7.0711,-7.0801,-7.081,-7.0842,-7.0852,-7.0861,-7.087,-7.092,-7.0935,-7.0777,-7.0777,-7.0776,0,0,-7.0269,-7.0301,-7.0335,-7.0406,-7.0435,-7.049,-7.0451,-7.051,-7.0551,-7.053,-7.0605,-7.0624,-7.0664,-7.0748,-7.0786,-7.0765,-7.0916,-7.087,-7.0876,-7.088,-7.0929,-7.0943,-7.0957,-7.0781,-7.078,-7.078,0,0,-7.0364,-7.0393,-7.046,-7.0491,-7.0537,-7.055,-7.0566,-7.0607,-7.062,-7.0695,-7.0682,-7.0729,-7.0815,-7.0845,-7.0871,-7.098,-7.0966,-7.0995,-7.105,-7.1099,-7.1111,-7.1122,-7.1162,-7.1176,-7.1004,-7.1004,-7.1004,0,-7.0402,-7.0487,-7.0495,-7.0557,-7.0589,-7.0576,-7.0643,-7.0671,-7.0729,-7.0751,-7.0728,-7.0837,-7.0862,-7.0954,-7.0981,-7.1003,-7.1021,-7.099,-7.1109,-7.1121,-7.1131,-7.1169,-7.1184,-7.1007,-7.1007,-7.1007,-7.1006,0,-7.0533,-7.0592,-7.064,-7.07,-7.0737,-7.0801,-7.0817,-7.0854,-7.0853,-7.0868,-7.0945,-7.0976,-7.1031,-7.1052,-7.105,-7.1144,-7.1131,-7.1109,-7.1066,-7.1149,-7.1185,-7.1199,-7.1012,-7.1011,-7.101,-7.1009,0,0,-7.0648,-7.0714,-7.0732,-7.0759,-7.081,-7.0855,-7.0918,-7.0974,-7.1006,-7.1046,-7.11,-7.1174,-7.1155,-7.1185,-7.1186,-7.1229,-7.1315,-7.1202,-7.1203,-7.1222,-7.1422,-7.1438,-7.1455,-7.1306,-7.1309,-7.1311,-7.1418,0,-7.0748,-7.0863,-7.0873,-7.0975,-7.103,-7.102,-7.1075,-7.1111,-7.1128,-7.1176,-7.1193,-7.1246,-7.1216,-7.1235,-7.1277,-7.1296,-7.1355,-7.1288,-7.1355,-7.1357,-7.1346,-7.1473,-7.1491,-7.159,-7.1432,-7.1435,-7.1436,0,-7.0879,-7.0928,-7.1037,-7.1082,-7.1105,-7.1155,-7.1208,-7.1255,-7.1296,-7.1304,-7.134,-7.1336,-7.14,-7.1357,-7.1445,-7.14,-7.1428,-7.1441,-7.1445,-7.1452,-7.1402,-7.1483,-7.1622,-7.1637,-7.1458,-7.1456,-7.1455,0,-7.0954,-7.1046,-7.1123,-7.1147,-7.1202,-7.1237,-7.1261,-7.13,-7.1334,-7.1379,-7.1401,-7.1453,-7.1481,-7.1521,-7.1531,-7.1498,-7.162,-7.1576,-7.1628,-7.1628,-7.1654,-7.1652,-7.1799,-7.1672,-7.1672,-7.1671,-7.1671,0,-7.1064,-7.1131,-7.1158,-7.1206,-7.1281,-7.1291,-7.1365,-7.1386,-7.1421,-7.1472,-7.1465,-7.1513,-7.1523,-7.1572,-7.158,-7.1653,-7.1666,-7.1674,-7.1675,-7.1675,-7.1674,-7.1693,-7.1687,-7.1675,-7.1674,-7.1674,-7.1673,0,-7.116,-7.118,-7.1265,-7.1311,-7.1324,-7.1377,-7.1416,-7.1461,-7.1478,-7.1542,-7.1558,-7.1583,-7.1641,-7.1656,-7.1723,-7.1729,-7.1815,-7.181,-7.1802,-7.1802,-7.1854,-7.1849,-7.2018,-7.2041,-7.1899,-7.19,-7.1901,0,-7.1229,-7.1281,-7.1334,-7.1369,-7.1396,-7.1451,-7.1487,-7.1499,-7.1536,-7.1589,-7.1628,-7.1685,-7.1732,-7.1825,-7.1848,-7.1901,-7.1897,-7.1953,-7.1904,-7.1903,-7.1898,-7.1895,-7.1901,-7.1961,-7.1963,-7.1964,-7.1965,0,-7.135,-7.1359,-7.1411,-7.1468,-7.1512,-7.1556,-7.1599,-7.1627,-7.1646,-7.1687,-7.1748,-7.1785,-7.1857,-7.1914,-7.1967,-7.199,-7.1981,-7.1981,-7.1996,-7.1996,-7.199,-7.1994,-7.1828,-7.1976,-7.1975,-7.1974,-7.1974,-7.1973,-7.1435,-7.1482,-7.1527,-7.1586,-7.1621,-7.1661,-7.1707,-7.1731,-7.1783,-7.1844,-7.1848,-7.1914,-7.1955,-7.2026,-7.2052,-7.2103,-7.2086,-7.2107,-7.2113,-7.2118,-7.2123,-7.1982,-7.2113,-7.2112,-7.2112,-7.2112,-7.2112,0,-7.1556,-7.1586,-7.1641,-7.1703,-7.1749,-7.174,-7.1787,-7.1826,-7.1886,-7.1926,-7.1973,-7.2044,-7.21,-7.2129,-7.2185,-7.222,-7.2217,-7.2234,-7.2231,-7.2237,-7.2135,-7.2117,-7.2236,-7.2236,-7.2236,-7.2235,-7.2235,-7.2235,-7.1625,-7.1704,-7.1718,-7.1814,-7.1843,-7.191,-7.1938,-7.1975,-7.2008,-7.2088,-7.2136,-7.2156,-7.2191,-7.225,-7.2301,-7.2308,-7.2329,-7.2348,-7.2353,-7.2257,-7.2244,-7.2232,-7.2215,-7.2352,-7.2353,-7.2451,-7.2452,-7.2452]}]]